Weather in Sebezh

Russia / Pskov Oblast     56°16′38″N   28°29′05″E
temp.,
°C
wind,
m/s
gust,
m/s
humid.,
%
clouds,
%
prec.,
mm/h
press.,
hPa
HPBL,
m
7 march, sun
sun700:00−1wsw71662100 0.0 10071155
03:00−1wsw71691100 0.1 10021270
06:000wsw81594100 0.9 9981259
09:00−3nw41163100 3.1 9981575
12:00−2w7166387 0.0 9981785
15:00−1wnw8164893 0.7 9982548
18:00−2wnw71555100 0.1 9981914
21:00−5w61383100 0.1 9991275
8 march, mon
mon800:00−5wnw61186100 0.4 1000920
03:00−5nw51091100 1.3 1002836
06:00−8nw4118179 0.1 1004596
09:00−7nw598470 0.2 1007906
12:00−6nnw5871100 0.2 10091043
15:00−5nnw5866100 0.3 10121047
18:00−6n4871100 0.0 1013953
21:00−8nnw398094 0.0 1016519
9 march, tue
tue900:00−9nnw2787100 0.0 1017377
03:00−11nnw269272 0.0 1019222
06:00−12nnw27931 0.0 1019288
09:00−11nnw35831 0.0 1021336
12:00−7nnw235761 0.0 1022617
15:00−4wnw234866 0.0 1022935
18:00−5wsw246299 0.0 1020459
21:00−6sw3871100 0.0 1020334
10 march, wed
wed1000:00−6sw41168100 0.0 1018511
03:00−5wsw51267100 0.0 1017565
06:00−5wsw41088100 0.1 1016529
09:00−3wsw3794100 1.5 1017453
12:00−1wnw2383100 1.1 1018502
15:000nw346496 1.9 10181169
18:00−2nw247139 0.0 1017212
21:00−6nnw229729 0.0 101832
11 march, thu
thu1100:00−7nw119622 0.0 101721
03:00−8wnw009419 0.0 101621
06:00−6se2395100 0.1 1015103
09:00−4sse3693100 0.1 1013273
12:00−1s4966100 0.0 1011573
15:000s61062100 0.0 1007956
18:00−2s61293100 0.5 1004873
21:00−1s61394100 1.4 1000909